sat.trackr.live / text

‹ back to catalog

TIANYI D

NORAD 64051 · 2025-103D

PAYLOAD ACTIVE UNKNOWN

§ Identity

Operator
Country
PRC
Launch date
2025-05-17
Launch site
JSC
Launch vehicle
Mass (kg)
RCS (m²)

External: N2YO · Heavens-Above · Gunter

§ Orbital elements

Epoch: 2026-09-21T23:26:02.700096Z

Period
94.76 min
Inclination
97.3745°
Eccentricity
0.0002583
Mean motion
15.19603318 rev/d
Perigee alt
505.3 km
Apogee alt
508.8 km
Semi-major
6,885.2 km
B*
1.1239e-4
RAAN
333.9052°
Arg perigee
278.0895°
Mean anomaly
82.0047°
Rev number
7,469

§ Raw data

TIANYI D1 64051U 25103D   26264.97642014  .00002326  00000+0  11239-3 0  99912 64051  97.3745 333.9052 0002583 278.0895  82.0047 15.19603318 74699

JSON: /api/v1/satellites/64051 · /tle

For live sub-satellite position, see the globe view (requires WebGL).

§ Visibility from observer

Set your observer location to see the next 7 days of passes ≥ 10°. The values pass through the URL so the page stays shareable.

No JS? Fill the form by hand. The geolocation button needs JavaScript.

§ Radio — SatNOGS DB

ModeDescriptionDownlinkUplink
FM Telemetry 401.402 MHz

1 transmitter · refreshed weekly from db.satnogs.org